Zurück zum Katalog

SL-8 R/B

AktivPO
NORAD 12092·ROCKET BODY·🇷🇺 Russia

Gestartet Dec 10, 1980 von Plesetsk Cosmodrome

Loading…

Nächste Überflüge (nächste 24 Stunden)

TLE

AktuellSource: Space-Track

Epoche: Sep 14, 2026, 10:34 UTC

1 12092U 80099B   26257.44033163 -.00000052  00000-0 -68053-4 0  9991
2 12092  82.9364 253.5113 0030249  15.2922 147.7206 13.77387316298694

Verfolge SL-8 R/B in Echtzeit mit AllMySat

Download on the App Store